Penn Yan, NY

3:54 AM EST on February 21, 2017 (GMT -0500)
Penn Yan

Weather History for KPEO - December, 2012

Change the Weather History Date:

Saturday, December 29, 2012

  Actual Average (KITH) Record (KITH)
Temperature  
Mean Temperature 26 °F -  
Max Temperature 28 °F 34 °F 63 °F (1984)
Min Temperature 24 °F 17 °F -13 °F (1933)
Degree Days  
Heating Degree Days 39    
Moisture  
Dew Point 23 °F    
Average Humidity 87    
Maximum Humidity 93    
Minimum Humidity 78    
Precipitation  
Precipitation 0.28 in - - ()
Sea Level Pressure  
Sea Level Pressure 29.76 in    
Wind  
Wind Speed 4 mph (NNW)    
Max Wind Speed 13 mph    
Max Gust Speed 20 mph    
Visibility 3 miles    
Events Fog , Snow    
Averages and records for this station are not official NWS values.
T = Trace of Precipitation, MM = Missing Value Source: NWS Daily Summary

Daily Weather History Graph

Daily Weather History Graph

Search for Another Location

Airport or City:

Trip Planner

Search our weather history database for the weather conditions in past years. The results will help you decide how hot, cold, wet, or windy it might be!

Date:

Astronomy

Dec. 29, 2012 Rise Set
Actual Time 7:38 AM EST 4:43 PM EST
Civil Twilight 7:05 AM EST 5:15 PM EST
Nautical Twilight 6:30 AM EST 5:50 PM EST
Astronomical Twilight 5:56 AM EST 6:25 PM EST
Moon 6:16 PM EST (12/29) 8:08 AM EST (12/29)
Length of Visible Light 10h 09m
Length of Day
9h 05m
Full, 98% of the Moon is Illuminated
Dec 29
Full
Jan 4
Last Quarter
Jan 11
New
Jan 18
First Quarter
Jan 26
Full

Hourly Weather History & Observations

Time (EST) Temp. Windchill Dew Point Humidity Pressure Visibility Wind Dir Wind Speed Gust Speed Precip Events Conditions
12:53 AM 27.0 °F - 21.0 °F 78% 30.02 in 10.0 mi Calm Calm - N/A   Overcast
1:53 AM 27.0 °F 20.5 °F 21.0 °F 78% 30.03 in 10.0 mi SSE 5.8 mph - N/A   Overcast
2:53 AM 27.0 °F - 21.0 °F 78% 29.98 in 10.0 mi Calm Calm - N/A   Overcast
3:28 AM 26.6 °F - 21.2 °F 80% 29.91 in 10.0 mi Calm Calm - N/A   Overcast
3:53 AM 26.1 °F - 21.0 °F 81% 29.96 in 10.0 mi Calm Calm - N/A   Overcast
4:40 AM 26.6 °F 22.6 °F 21.2 °F 80% 29.91 in 10.0 mi South 3.5 mph - N/A   Overcast
4:47 AM 26.6 °F 21.2 °F 21.2 °F 80% 29.91 in 10.0 mi South 4.6 mph - N/A   Overcast
4:53 AM 26.1 °F 21.9 °F 21.0 °F 81% 29.95 in 10.0 mi South 3.5 mph - N/A   Overcast
5:35 AM 26.6 °F 21.2 °F 21.2 °F 80% 29.91 in 2.0 mi SSE 4.6 mph - 0.00 in Snow Light Snow
5:43 AM 26.6 °F 20.0 °F 23.0 °F 86% 29.91 in 1.5 mi SSE 5.8 mph - 0.00 in Snow Light Snow
5:53 AM 26.1 °F 20.5 °F 23.0 °F 88% 29.94 in 2.0 mi SE 4.6 mph - 0.00 in Snow Light Snow
6:00 AM 26.6 °F 21.2 °F 23.0 °F 86% 29.90 in 1.5 mi SE 4.6 mph - 0.00 in Snow Light Snow
7:28 AM 26.6 °F - 23.0 °F 86% 29.82 in 1.2 mi Calm Calm - 0.00 in Snow Light Snow
7:45 AM 26.6 °F 21.2 °F 24.8 °F 93% 29.80 in 1.0 mi ENE 4.6 mph - 0.01 in Snow Light Snow
7:53 AM 26.1 °F 21.9 °F 23.0 °F 88% 29.83 in 0.8 mi ENE 3.5 mph - 0.01 in Snow Light Snow
8:01 AM 26.6 °F 22.6 °F 23.0 °F 86% 29.79 in 0.5 mi ENE 3.5 mph - 0.01 in Fog , Snow Snow
8:46 AM 24.8 °F 20.5 °F 23.0 °F 93% 29.78 in 0.2 mi East 3.5 mph - 0.05 in Fog , Snow Heavy Snow
8:53 AM 25.0 °F 20.7 °F 23.0 °F 92% 29.82 in 0.2 mi East 3.5 mph - 0.06 in Fog , Snow Snow
9:25 AM 26.6 °F 21.2 °F 24.8 °F 93% 29.77 in 0.2 mi East 4.6 mph - 0.03 in Fog , Snow Snow
9:34 AM 26.6 °F 21.2 °F 23.0 °F 86% 29.77 in 0.2 mi East 4.6 mph - 0.05 in Fog , Snow Heavy Snow
9:53 AM 26.1 °F 20.5 °F 23.0 °F 88% 29.81 in 0.5 mi East 4.6 mph - 0.06 in Fog , Snow Snow
10:53 AM 26.1 °F - 24.1 °F 92% 29.78 in 0.2 mi Calm Calm - 0.05 in Fog , Snow Heavy Snow
11:41 AM 26.6 °F 22.6 °F 23.0 °F 86% 29.70 in 0.5 mi SE 3.5 mph - 0.03 in Fog , Snow Snow
11:53 AM 26.1 °F 20.5 °F 23.0 °F 88% 29.73 in 0.5 mi East 4.6 mph - 0.04 in Fog , Snow Snow
12:04 PM 26.6 °F 22.6 °F 23.0 °F 86% 29.68 in 0.8 mi East 3.5 mph - 0.00 in Snow Light Snow
12:12 PM 26.6 °F - 24.8 °F 93% 29.67 in 1.0 mi Calm Calm - 0.00 in Snow Light Snow
12:40 PM 26.6 °F - 24.8 °F 93% 29.66 in 0.5 mi Calm Calm - 0.01 in Fog , Snow Snow
12:53 PM 26.1 °F - 24.1 °F 92% 29.69 in 0.5 mi Calm Calm - 0.02 in Fog , Snow Snow
1:01 PM 26.6 °F - 24.8 °F 93% 29.65 in 0.8 mi Calm Calm - 0.00 in Snow Light Snow
1:11 PM 26.6 °F - 24.8 °F 93% 29.64 in 1.0 mi Calm Calm - 0.00 in Snow Light Snow
1:44 PM 26.6 °F - 24.8 °F 93% 29.62 in 1.0 mi Calm Calm - 0.01 in Snow Light Snow
1:53 PM 28.0 °F - 24.1 °F 85% 29.66 in 1.0 mi Calm Calm - 0.01 in Snow Light Snow
2:11 PM 26.6 °F - 24.8 °F 93% 29.63 in 1.0 mi Calm Calm - 0.00 in Snow Light Snow
2:23 PM 28.4 °F - 24.8 °F 86% 29.63 in 1.2 mi Calm Calm - 0.00 in Snow Light Snow
2:35 PM 26.6 °F - 24.8 °F 93% 29.63 in 0.8 mi Calm Calm - 0.01 in Snow Light Snow
2:53 PM 28.0 °F 24.2 °F 24.1 °F 85% 29.66 in 0.5 mi North 3.5 mph - 0.02 in Fog , Snow Snow
3:27 PM 28.4 °F - 24.8 °F 86% 29.63 in 1.2 mi Calm Calm - 0.01 in Snow Light Snow
3:53 PM 27.0 °F - 24.1 °F 89% 29.66 in 1.8 mi Calm Calm - 0.01 in Snow Light Snow
4:24 PM 26.6 °F 22.6 °F 24.8 °F 93% 29.62 in 1.2 mi NNW 3.5 mph - 0.00 in Snow Light Snow
4:53 PM 27.0 °F 23.0 °F 24.1 °F 89% 29.66 in 1.0 mi NNW 3.5 mph - 0.00 in Snow Light Snow
5:10 PM 26.6 °F 22.6 °F 24.8 °F 93% 29.62 in 2.0 mi NNW 3.5 mph - 0.01 in Snow Light Snow
5:16 PM 26.6 °F 22.6 °F 24.8 °F 93% 29.62 in 3.0 mi NW 3.5 mph - 0.01 in Snow Light Snow
6:18 PM 26.6 °F 20.0 °F 23.0 °F 86% 29.64 in 4.0 mi WNW 5.8 mph - 0.00 in Snow Light Snow
6:53 PM 27.0 °F 18.7 °F 23.0 °F 85% 29.69 in 7.0 mi NW 8.1 mph - 0.00 in   Overcast
7:08 PM 26.6 °F 16.2 °F 24.8 °F 93% 29.66 in 6.0 mi NW 11.5 mph 19.6 mph N/A   Overcast
7:53 PM 27.0 °F 16.1 °F 23.0 °F 85% 29.72 in 3.0 mi NW 12.7 mph 18.4 mph 0.00 in Snow Light Snow
8:08 PM 26.6 °F 16.8 °F 23.0 °F 86% 29.69 in 2.5 mi NW 10.4 mph - 0.00 in Snow Light Snow
8:30 PM 26.6 °F 16.8 °F 23.0 °F 86% 29.69 in 3.0 mi NW 10.4 mph 18.4 mph 0.00 in Snow Light Snow
8:46 PM 26.6 °F 15.7 °F 21.2 °F 80% 29.70 in 4.0 mi NW 12.7 mph 19.6 mph 0.00 in Snow Light Snow
8:53 PM 26.1 °F 16.8 °F 21.0 °F 81% 29.74 in 4.0 mi NW 9.2 mph 18.4 mph 0.00 in Snow Light Snow
9:28 PM 24.8 °F 15.3 °F 19.4 °F 80% 29.72 in 3.0 mi NW 9.2 mph 18.4 mph 0.00 in Snow Light Snow
9:37 PM 24.8 °F 14.6 °F 19.4 °F 80% 29.72 in 2.5 mi NW 10.4 mph - 0.00 in Snow Light Snow
9:46 PM 24.8 °F 16.9 °F 21.2 °F 86% 29.73 in 3.0 mi WNW 6.9 mph - 0.00 in Snow Light Snow
9:53 PM 25.0 °F 17.1 °F 21.0 °F 85% 29.77 in 3.0 mi NW 6.9 mph - 0.00 in Snow Light Snow
10:15 PM 24.8 °F 16.1 °F 21.2 °F 86% 29.74 in 4.0 mi NW 8.1 mph - 0.00 in Snow Light Snow
10:26 PM 24.8 °F 16.9 °F 21.2 °F 86% 29.74 in 6.0 mi NW 6.9 mph - 0.00 in Snow Light Snow
10:45 PM 24.8 °F 16.1 °F 21.2 °F 86% 29.75 in 4.0 mi NW 8.1 mph - 0.00 in Snow Light Snow
10:53 PM 25.0 °F 16.3 °F 21.0 °F 85% 29.79 in 2.5 mi NW 8.1 mph - 0.00 in Snow Light Snow
11:02 PM 24.8 °F 15.3 °F 21.2 °F 86% 29.75 in 3.0 mi NW 9.2 mph - 0.00 in Snow Light Snow
11:10 PM 24.8 °F 17.9 °F 21.2 °F 86% 29.75 in 2.5 mi WNW 5.8 mph - 0.00 in Snow Light Snow
11:20 PM 24.8 °F 16.9 °F 21.2 °F 86% 29.76 in 3.0 mi NW 6.9 mph - 0.00 in Snow Light Snow
11:35 PM 24.8 °F 16.9 °F 21.2 °F 86% 29.76 in 2.0 mi NW 6.9 mph - 0.00 in Snow Light Snow
11:38 PM 24.8 °F 16.1 °F 21.2 °F 86% 29.76 in 2.5 mi WNW 8.1 mph - 0.00 in Snow Light Snow
11:46 PM 24.8 °F 17.9 °F 21.2 °F 86% 29.76 in 4.0 mi WNW 5.8 mph - 0.00 in Snow Light Snow
11:53 PM 25.0 °F 14.8 °F 19.9 °F 81% 29.80 in 2.5 mi West 10.4 mph 16.1 mph 0.00 in Snow Light Snow